Location: Bats
(43.6587°N, 0.4584°W)
Time: 19:40:07
(UTC+00:00)

Cosmos 1331 Rocket - Pass Details

Date: 12 January 2026
Orbit: 745 x 773 km, 74.0° (Epoch: 13 February)

Event Time Altitude Azimuth Distance (km) Brightness Sun altitude
Rises 18:46:58 0° 205° (SSW) 3,174 7.7 -21.2°
Reaches altitude 10° 18:49:19 10° 208° (SSW) 2,254 6.9 -21.6°
Maximum altitude 18:54:25 70° 292° (WNW) 796 4.1 -22.5°
Enters shadow 18:57:32 24° 11° (N) 1,523 5.3 -23.0°
